Powrót do katalogu

STARLINK-5550

AktywnyŁącznośćSSO
NORAD 56361·PAYLOAD·🇺🇸 United States

Wystrzelony Apr 27, 2023 z Vandenberg Space Force Base

Loading…

Następne Przeloty (najbliższe 24 godziny)

TLE

ŚwieżeSource: CelesTrak SupGP

Epoka: Sep 15, 2026, 03:03 UTC

1 56361C 23058AW  26258.12756944 -.00051109  00000+0 -31089-2 0  2588
2 56361  97.2854 252.2728 0001328  75.2151 235.4129 15.10555106    17

Śledź STARLINK-5550 w czasie rzeczywistym z AllMySat

Download on the App Store